Miscellaneous Local Product
Issued by NWS Hastings, NE

Home | Current Version | Previous Version | Graphics & Text | Print | Product List | Glossary On
Versions: 1 2 3 4 5 6 7 8 9 10 11 12 13 14 15 16 17 18 19 20 21 22 23 24 25 26 27 28 29 30 31 32 33 34 35 36 37 38 39 40 41 42 43 44 45 46 47 48 49 50
000
AXUS43 KGID 231402
MISGRI

GID CWA HOURLY WEATHER ROUNDUP
NATIONAL WEATHER SERVICE HASTINGS NE
900 AM CDT TUE SEP 23 2014

NOTE: "FAIR" INDICATES FEW OR NO CLOUDS BELOW 12,000 FEET WITH NO
SIGNIFICANT WEATHER AND/OR OBSTRUCTIONS TO VISIBILITY.

...SOUTH CENTRAL NEBRASKA...

CITY           SKY/WX    TMP DP  RH WIND       PRES   REMARKS
GRAND ISLAND   CLOUDY    57  55  93 SE9       30.10S
HASTINGS       CLOUDY    57  53  86 SE14      30.09S
KEARNEY        CLOUDY    55  54  94 SE12      30.08S
ORD            CLOUDY    56  54  93 SE12      30.06S
YORK           CLOUDY    57  55  94 SE12      30.13S
AURORA         CLOUDY    57  56  99 SE10      30.11S
LEXINGTON      CLOUDY    58  56  94 S6        30.06R
HOLDREGE       CLOUDY    56  55  94 S10       30.07R
HEBRON         CLOUDY    58  55  89 SE7       30.13S

...NEBRASKA PANHANDLE...

CITY           SKY/WX    TMP DP  RH WIND       PRES   REMARKS
CHADRON        LGT RAIN  61  55  81 SW12      29.94S
ALLIANCE       MOSUNNY   52  49  89 W12       30.00R
SCOTTSBLUFF    SUNNY     56  51  84 N5        30.03R
SIDNEY         SUNNY     62  51  67 W13       30.06R

...WESTERN AND NORTH CENTRAL NEBRASKA...

CITY           SKY/WX    TMP DP  RH WIND       PRES   REMARKS
VALENTINE      CLOUDY    61  57  87 S14       29.95F
AINSWORTH      CLOUDY    58  55  90 S16       29.99S
ONEILL         DRIZZLE   57  56  99 SE18      30.06S
BROKEN BOW     CLOUDY    58  55  90 S15       30.05R
IMPERIAL       PTSUNNY   60  56  86 S9        30.03S
NORTH PLATTE   MOSUNNY   58  56  93 SE8       30.02S
MCCOOK         PTSUNNY   59  56  89 S9        30.04F

...EASTERN NEBRASKA...

CITY           SKY/WX    TMP DP  RH WIND       PRES   REMARKS
NORFOLK        RAIN      57  55  93 S17       30.12S FOG
SO SIOUX CITY  LGT RAIN  58  56  93 SE7       30.16S
TEKAMAH        LGT RAIN  60  55  83 SE9       30.17S
COLUMBUS       CLOUDY    55  54  94 S10       30.15F
ALBION         LGT RAIN  56  54  94 SE12      30.10S
OMAHA EPPLEY   CLOUDY    61  53  75 SE10      30.20R
OFFUTT AFB     CLOUDY    60  58  95 SE9       30.19R
MILLARD        CLOUDY    61  54  79 SE8       30.19R
LINCOLN        RAIN      59  55  87 S3        30.18S FOG
NEBRASKA CITY    N/A     58  49  70 S9        30.19R
BEATRICE       DRIZZLE   59  55  87 S5        30.17R
FALLS CITY     CLOUDY    60  52  74 S9        30.19F

...NORTHERN KANSAS...

CITY           SKY/WX    TMP DP  RH WIND       PRES   REMARKS
GOODLAND       PTSUNNY   57  55  93 S10       30.07S
HILL CITY      CLOUDY    60  53  77 S16       30.07F
NORTON         CLOUDY    59  50  72 SE14G21   30.05S
PHILLIPSBURG   CLOUDY    61  55  82 SE9       30.08S
SMITH CENTER   CLOUDY    57  55  94 SE12      30.10S
BELOIT         CLOUDY    61  55  82 SE13      30.11S
RUSSELL        PTSUNNY   57  53  86 SE23G30   30.08S
CONCORDIA      CLOUDY    59  56  89 S8        30.13R
SALINA         LGT RAIN  59  55  87 SE14      30.16F
TOPEKA         CLOUDY    60  54  80 SE6       30.23F



USA.gov is the U.S. government's official web portal to all federal, state and local government web resources and services.